Погода в Паниковичах

Россия / Псковская область     57°41′23″N   27°33′56″E
темп.,
°C
ветер,
м/с
пор.,
м/с
влажн.,
%
обл.,
%
осадки,
мм/ч
давл.,
гПа
погр.,
м
13 апреля, вт
вт1300:00+9ююв41271100 0.0 1019302
03:00+8ю2280100 0.0 101951
06:00+8ю267895 0.0 1019170
09:00+9зюз257499 0.0 1019289
12:00+10зсз3279100 0.0 1020629
15:00+7сз3482100 0.1 1021426
18:00+6сз3686100 0.1 1020510
21:00+5ссз3792100 0.1 1020634
14 апреля, ср
ср1400:00+4ссз4795100 0.1 1020640
03:00+2с4897100 0.3 1020413
06:00+2с3898100 0.3 1020332
09:00+2с3799100 0.6 1021255
12:00+4ссв3577100 0.1 1021593
15:00+7ссв4654100 0.1 1021933
18:00+6с4758100 0.0 1022672
21:00+4с3106489 0.0 1023363
15 апреля, чт
чт1500:00+3ссв31072100 0.0 1023400
03:00+2ссв4118088 0.0 1024387
06:00+1ссв31088100 0.0 1025321
09:00+4ссв51167100 0.0 1025553
12:00+7ссв6845100 0.0 1025921
15:00+9св683999 0.0 10241324
18:00+9св594396 0.0 10241353
21:00+5св51157100 0.0 1025666
16 апреля, пт
пт1600:00+3ссв51368100 0.0 1025578
03:00+3ссв51275100 0.1 1025583
06:00+2ссв41183100 0.3 1025544
09:00+3св41182100 0.9 1025532
12:00+5св51074100 0.0 1025569
15:00+10св5860100 0.0 1025922
18:00+10св595340 0.0 10251086
21:00+6св311626 0.0 1026315
17 апреля, сб
сб1700:00+4св311685 0.0 1026317
03:00+3св3117616 0.0 1027331
06:00+2св4117936 0.0 1027383
09:00+6всв41065100 0.0 1028498
12:00+10всв585787 0.0 1028745
15:00+13всв575155 0.0 10281151
18:00+12всв4854100 0.0 10281154
21:00+9всв41160100 0.0 1029403